Skip Page Navigation
NASA JPL Caltech
NASA Logo - Jet Propulsion Laboratory + View the NASA Portal
+ Center for Near-Earth Object Studies
JPL Home Earth Solar System Stars & Galaxies Technology
JPL Solar System Dynamics
BODIES ORBITS EPHEMERIDES TOOLS PHYSICAL DATA DISCOVERY FAQ SITE MAP
JPL Small-Body Database Browser
Search: [ help ]  
39582 (1993 FR21)
Classification: Main-belt Asteroid          SPK-ID: 2039582
Ephemeris | Orbit Diagram | Orbital Elements | Mission Design | Physical Parameters | Discovery Circumstances | Close-Approach Data ]

[ show orbit diagram ]
Orbital Elements at Epoch 2459000.5 (2020-May-31.0) TDB
Reference: JPL 21 (heliocentric ecliptic J2000)
 Element Value Uncertainty (1-sigma)   Units 
e .02762617307279245 4.6141e-08  
a 2.727000340566436 1.8042e-08 au
q 2.651663757188384 1.2059e-07 au
i 5.457603021091797 5.8262e-06 deg
node 4.88483168702717 4.0104e-05 deg
peri 113.0835606693045 0.00011406 deg
M 83.24203327599422 0.00010677 deg
tp 2458620.164911264979
(2019-May-16.66491127)
0.00048677 TDB
period 1644.849681778417
4.50
1.6323e-05
4.469e-08
d
yr
n .2188649844347884 2.172e-09 deg/d
Q 2.802336923944488 1.854e-08 au
  Orbit Determination Parameters
   # obs. used (total)      763  
   data-arc span      9944 days (27.23 yr)  
   first obs. used      1993-03-21  
   last obs. used      2020-06-11  
   planetary ephem.      DE431  
   SB-pert. ephem.      SB431-N16  
   condition code      0  
   norm. resid. RMS      .53824  
   source      ORB  
   producer      Otto Matic  
   solution date      2020-Jun-23 21:02:11  

Additional Information
 Earth MOID = 1.67286 au 
 Jupiter MOID = 2.19892 au 
 T_jup = 3.349 
[ hide covariance matrix ]
Orbital Elements at Epoch 2457447.5 (2016-Feb-29.0) TDB
Reference: JPL 21 (heliocentric ecliptic J2000)
 Element Value Uncertainty (1-sigma)   Units 
e .0285601142837655 4.6584e-08  
q 2.649348345579928 1.2201e-07 au
tp 2456980.024662017803
(2014-Nov-18.52466202)
0.00046263 TDB
node 4.9027990085785 4.01e-05 deg
peri 114.2339874021558 0.00010997 deg
i 5.458060731769194 5.8263e-06 deg
  Orbit Determination Parameters
   # obs. used (total)      763  
   data-arc span      9944 days (27.23 yr)  
   first obs. used      1993-03-21  
   last obs. used      2020-06-11  
   planetary ephem.      DE431  
   SB-pert. ephem.      SB431-N16  
   condition code      0  
   norm. resid. RMS      .53824  
   source      ORB  
   producer      Otto Matic  
   solution date      2020-Jun-23 21:02:11  

Additional Information
 Jupiter MOID = 2.19892 au 
 T_jup = 3.349 
Orbit Covariance (6×6)
  e q tp node peri i
e 2.170033740985465E-15 -5.632677050514419E-15 9.194347778599759E-12 3.216874972218896E-15 1.985247628466663E-12 -3.553316484900499E-15
q -5.632677050514419E-15 1.488614722535272E-14 -2.325026038041041E-11 -9.534553344935021E-15 -5.001331375746842E-12 9.707929591140231E-15
tp 9.194347778599759E-12 -2.325026038041041E-11 2.140287779603425E-7 1.008920742283217E-10 4.737985100500347E-8 -3.082788645526431E-11
node 3.216874972218896E-15 -9.534553344935021E-15 1.008920742283217E-10 1.607987992509194E-9 -1.577806153587717E-9 -5.420515162030765E-11
peri 1.985247628466663E-12 -5.001331375746842E-12 4.737985100500347E-8 -1.577806153587717E-9 1.209314288822575E-8 4.721517429908138E-11
i -3.553316484900499E-15 9.707929591140231E-15 -3.082788645526431E-11 -5.420515162030765E-11 4.721517429908138E-11 3.394544079796312E-11

Ephemeris | Orbit Diagram | Orbital Elements | Mission Design | Physical Parameters | Discovery Circumstances | Close-Approach Data ]

Physical Parameter Table
Parameter Symbol Value Units Sigma Reference Notes
absolute magnitude H 15.3   n/a MPO426180  
diameter diameter 4.716 km 0.108 urn:nasa:pds:neowise_diameters_albedos::2.0[mainbelt] (http://adsabs.harvard.edu/abs/2011ApJ...741...68M)  
geometric albedo albedo 0.060   0.006 urn:nasa:pds:neowise_diameters_albedos::2.0[mainbelt] (http://adsabs.harvard.edu/abs/2011ApJ...741...68M)  

39582 (1993 FR21)          Discovered 1993-Mar-21 by UESAC at La Silla
Reference: 20020526/Numbers.arcLast Updated: 2004-04-19

[ show close-approach data ]
Alternate Designations
 1993 FR21 = 1999 RJ69 
Ephemeris | Orbit Diagram | Orbital Elements | Mission Design | Physical Parameters | Discovery Circumstances | Close-Approach Data ]
ABOUT SSD CREDITS/AWARDS PRIVACY/COPYRIGHT GLOSSARY LINKS
FirstGov 2020-Oct-01 14:20 UT
(server date/time)  
NASA Home Page
Site Manager:   Ryan S. Park
Webmaster  Alan B. Chamberlin